{"data":{"norad_id":66059,"epoch":"2026-09-20T04:03:05.520096Z","epoch_age_seconds":131632,"freshness":"FRESH","line1":"1 66059U 25235B   26263.16881389  .00019563  00000+0  58829-3 0  9994","line2":"2 66059  53.1588  59.3448 0000697  38.8057 321.2996 15.34416869 52730","mean_motion":15.34416869,"eccentricity":6.97e-5,"inclination_deg":53.1588,"raan_deg":59.3448,"arg_perigee_deg":38.8057,"mean_anomaly_deg":321.2996,"bstar":0.00058829,"rev_number":5273,"period_min":93.846726342266,"perigee_km":462.17629937332,"apogee_km":463.12990551361,"semimajor_km":6840.7901024435,"source":"CELESTRAK","updated_at":"2026-09-21T09:00:35.793836Z"}}